H1 CPF 2 NER 2022 11 22 9 326 01 glonass116 H2 0907001 9116 36111 2022 11 22 0 0 0 2022 11 25 23 45 0 900 1 1 0 0 0 1 H9 10 0 59905 0.00000 0 -5841002.696 -20209589.027 -14436353.521 10 0 59905 900.00000 0 -4755027.539 -18617223.826 -16785374.828 10 0 59905 1800.00000 0 -3379896.671 -16904875.143 -18808591.900 10 0 59905 2700.00000 0 -1724814.975 -15135879.318 -20466755.346 10 0 59905 3600.00000 0 188532.814 -13372390.633 -21727698.403 10 0 59905 4500.00000 0 2326631.339 -11672843.936 -22566957.328 10 0 59905 5400.00000 0 4645283.794 -10089592.503 -22968243.193 10 0 59905 6300.00000 0 7091214.414 -8666819.122 -22923756.388 10 0 59905 7200.00000 0 9604058.739 -7438806.934 -22434338.031 10 0 59905 8100.00000 0 12118660.092 -6428641.440 -21509455.474 10 0 59905 9000.00000 0 14567578.003 -5647397.115 -20167021.988 10 0 59905 9900.00000 0 16883705.170 -5093841.963 -18433053.782 10 0 59905 10800.00000 0 19002885.018 -4754671.720 -16341170.433 10 0 59905 11700.00000 0 20866421.512 -4605263.343 -13931947.720 10 0 59905 12600.00000 0 22423376.981 -4610915.693 -11252134.792 10 0 59905 13500.00000 0 23632562.328 -4728524.793 -8353750.236 10 0 59905 14400.00000 0 24464136.517 -4908622.655 -5293074.119 10 0 59905 15300.00000 0 24900748.303 -5097693.213 -2129555.438 10 0 59905 16200.00000 0 24938172.293 -5240666.970 1075343.839 10 0 59905 17100.00000 0 24585412.566 -5283488.214 4259345.446 10 0 59905 18000.00000 0 23864269.441 -5175645.443 7360568.449 10 0 59905 18900.00000 0 22808387.712 -4872557.011 10318735.731 10 0 59905 19800.00000 0 21461826.474 -4337710.076 13076349.354 10 0 59905 20700.00000 0 19877210.903 -3544461.373 15579811.323 10 0 59905 21600.00000 0 18113543.944 -2477422.614 17780467.661 10 0 59905 22500.00000 0 16233770.010 -1133370.906 19635555.272 10 0 59905 23400.00000 0 14302193.138 478355.262 21109033.118 10 0 59905 24300.00000 0 12381857.915 2335992.305 22172281.760 10 0 59905 25200.00000 0 10532002.695 4406015.529 22804657.936 10 0 59905 26100.00000 0 8805691.491 6644304.039 22993893.732 10 0 59905 27000.00000 0 7247723.035 8997758.893 22736332.961 10 0 59905 27900.00000 0 5892903.732 11406307.922 22037000.445 10 0 59905 28800.00000 0 4764755.915 13805214.300 20909503.015 10 0 59905 29700.00000 0 3874714.409 16127593.410 19375764.232 10 0 59905 30600.00000 0 3221843.931 18307033.698 17465597.852 10 0 59905 31500.00000 0 2793088.088 20280212.649 15216128.212 10 0 59905 32400.00000 0 2564038.324 21989399.233 12671068.573 10 0 59905 33300.00000 0 2500189.410 23384738.627 9879871.208 10 0 59905 34200.00000 0 2558627.591 24426223.986 6896765.707 10 0 59905 35100.00000 0 2690079.210 25085273.056 3779704.131 10 0 59905 36000.00000 0 2841232.486 25345843.892 589233.637 10 0 59905 36900.00000 0 2957233.530 25205043.205 -2612681.247 10 0 59905 37800.00000 0 2984250.342 24673202.221 -5763863.496 10 0 59905 38700.00000 0 2871995.706 23773417.271 -8803131.919 10 0 59905 39600.00000 0 2576101.698 22540574.803 -11671489.091 10 0 59905 40500.00000 0 2060244.888 21019902.136 -14313265.677 10 0 59905 41400.00000 0 1297931.884 19265105.032 -16677198.924 10 0 59905 42300.00000 0 273869.317 17336170.366 -18717424.468 10 0 59905 43200.00000 0 -1015140.131 15296925.899 -20394362.599 10 0 59905 44100.00000 0 -2559814.178 13212459.048 -21675482.270 10 0 59905 45000.00000 0 -4338536.861 11146502.185 -22535928.545 10 0 59905 45900.00000 0 -6318028.948 9158893.034 -22959001.915 10 0 59905 46800.00000 0 -8454515.988 7303215.369 -22936480.679 10 0 59905 47700.00000 0 -10695346.483 5624717.591 -22468780.429 10 0 59905 48600.00000 0 -12980993.990 4158595.030 -21564947.688 10 0 59905 49500.00000 0 -15247360.949 2928706.651 -20242487.665 10 0 59905 50400.00000 0 -17428289.325 1946778.880 -18527029.116 10 0 59905 51300.00000 0 -19458174.359 1212128.922 -16451832.269 10 0 59905 52200.00000 0 -21274573.199 711918.353 -14057148.641 10 0 59905 53100.00000 0 -22820699.918 421925.710 -11389444.555 10 0 59905 54000.00000 0 -24047702.914 307804.937 -8500502.769 10 0 59905 54900.00000 0 -24916629.427 326776.126 -5446419.193 10 0 59905 55800.00000 0 -25399994.643 429676.726 -2286513.982 10 0 59905 56700.00000 0 -25482889.344 563285.934 917821.840 10 0 59905 57600.00000 0 -25163579.235 672823.356 4104321.620 10 0 59905 58500.00000 0 -24453570.493 704515.466 7211056.455 10 0 59905 59400.00000 0 -23377138.525 608120.406 10177642.590 10 0 59905 60300.00000 0 -21970339.605 339303.334 12946418.843 10 0 59905 61200.00000 0 -20279546.878 -138239.096 15463570.554 10 0 59905 62100.00000 0 -18359572.252 -850995.947 17680177.872 10 0 59905 63000.00000 0 -16271453.004 -1814277.240 19553167.792 10 0 59905 63900.00000 0 -14079995.976 -3031325.732 21046151.365 10 0 59905 64800.00000 0 -11851182.132 -4492943.735 22130129.994 10 0 59905 65700.00000 0 -9649539.866 -6177651.659 22784057.389 10 0 59905 66600.00000 0 -7535596.549 -8052372.637 22995246.574 10 0 59905 67500.00000 0 -5563514.217 -10073615.528 22759614.414 10 0 59905 68400.00000 0 -3779007.366 -12189107.728 22081759.214 10 0 59905 69300.00000 0 -2217628.943 -14339810.352 20974870.027 10 0 59905 70200.00000 0 -903495.047 -16462232.321 19460469.516 10 0 59905 71100.00000 0 151499.569 -18490947.381 17567995.257 10 0 59905 72000.00000 0 947943.552 -20361209.320 15334227.470 10 0 59905 72900.00000 0 1498638.929 -22011556.495 12802574.094 10 0 59905 73800.00000 0 1827811.628 -23386297.054 10022226.858 10 0 59905 74700.00000 0 1969836.957 -24437770.895 7047204.683 10 0 59905 75600.00000 0 1967534.910 -25128293.818 3935302.965 10 0 59905 76500.00000 0 1870108.282 -25431702.394 746969.227 10 0 59905 77400.00000 0 1730811.600 -25334434.799 -2455872.692 10 0 59905 78300.00000 0 1604450.258 -24836102.392 -5611026.796 10 0 59905 79200.00000 0 1544816.369 -23949528.120 -8657233.723 10 0 59905 80100.00000 0 1602170.377 -22700250.328 -11535360.304 10 0 59905 81000.00000 0 1820875.484 -21125512.933 -14189546.632 10 0 59905 81900.00000 0 2237285.358 -19272784.391 -16568288.354 10 0 59905 82800.00000 0 2877974.742 -17197867.583 -18625433.229 10 0 59905 83700.00000 0 3758388.097 -14962679.580 -20321073.016 10 0 59905 84600.00000 0 4881963.783 -12632793.815 -21622313.853 10 0 59905 85500.00000 0 6239771.285 -10274846.886 -22503910.710 10 0 59906 0.00000 0 7810677.412 -7953917.679 -22948754.188 10 0 59906 900.00000 0 9562036.457 -5730985.985 -22948200.897 10 0 59906 1800.00000 0 11450874.326 -3660578.690 -22502240.792 10 0 59906 2700.00000 0 13425521.200 -1788696.352 -21619499.173 10 0 59906 3600.00000 0 15427623.664 -151108.622 -20317072.475 10 0 59906 4500.00000 0 17394454.185 1227912.712 -18620200.993 10 0 59906 5400.00000 0 19261422.351 2336370.987 -16561784.281 10 0 59906 6300.00000 0 20964683.763 3174800.707 -14181747.962 10 0 59906 7200.00000 0 22443737.939 3755992.448 -11526273.557 10 0 59906 8100.00000 0 23643906.814 4104199.003 -8646905.696 10 0 59906 9000.00000 0 24518589.977 4253856.858 -5599553.505 10 0 59906 9900.00000 0 25031201.801 4247877.540 -2443405.428 10 0 59906 10800.00000 0 25156708.752 4135581.630 760221.505 10 0 59906 11700.00000 0 24882701.780 3970363.451 3949075.384 10 0 59906 12600.00000 0 24209958.153 3807185.918 7061182.432 10 0 59906 13500.00000 0 23152468.620 3700012.383 10036055.235 10 0 59906 14400.00000 0 21736928.267 3699284.986 12815872.149 10 0 59906 15300.00000 0 20001712.170 3849557.096 15346604.377 10 0 59906 16200.00000 0 17995378.535 4187380.806 17579068.438 10 0 59906 17100.00000 0 15774761.950 4739539.667 19469883.363 10 0 59906 18000.00000 0 13402736.459 5521702.052 20982313.915 10 0 59906 18900.00000 0 10945741.905 6537552.789 22086983.635 10 0 59906 19800.00000 0 8471176.582 7778440.457 22762444.135 10 0 59906 20700.00000 0 6044764.790 9223555.967 22995589.909 10 0 59906 21600.00000 0 3728008.491 10840635.778 22781910.974 10 0 59906 22500.00000 0 1575828.616 12587161.051 22125578.740 10 0 59906 23400.00000 0 -365506.448 14412003.237 21039363.611 10 0 59906 24300.00000 0 -2060079.915 16257447.909 19544386.006 10 0 59906 25200.00000 0 -3483583.436 18061512.726 17669705.508 10 0 59906 26100.00000 0 -4624080.479 19760462.947 15451756.020 10 0 59906 27000.00000 0 -5482245.657 21291419.542 12933637.644 10 0 59906 27900.00000 0 -6071071.383 22594950.867 10164278.810 10 0 59906 28800.00000 0 -6415055.460 23617539.291 7197484.858 10 0 59906 29700.00000 0 -6548905.134 24313819.339 4090891.512 10 0 59906 30600.00000 0 -6515813.406 24648493.287 904843.635 10 0 59906 31500.00000 0 -6365381.414 24597843.637 -2298778.611 10 0 59906 32400.00000 0 -6151275.642 24150778.797 -5457763.142 10 0 59906 33300.00000 0 -5928719.807 23309367.915 -8510775.138 10 0 59906 34200.00000 0 -5751928.147 22088842.291 -11398548.175 10 0 59906 35100.00000 0 -5671589.202 20517063.226 -14065033.998 10 0 59906 36000.00000 0 -5732506.883 18633478.471 -16458488.569 10 0 59906 36900.00000 0 -5971498.780 16487610.833 -18532473.392 10 0 59906 37800.00000 0 -6415640.730 14137141.932 -20246753.019 10 0 59906 38700.00000 0 -7080931.984 11645670.684 -21568071.813 10 0 59906 39600.00000 0 -7971437.536 9080239.615 -22470795.418 10 0 59906 40500.00000 0 -9078944.249 6508731.329 -22937405.079 10 0 59906 41400.00000 0 -10383145.918 3997242.670 -22958835.742 10 0 59906 42300.00000 0 -11852350.324 1607544.941 -22534651.690 10 0 59906 43200.00000 0 -13444679.666 -605265.290 -21673056.480 10 0 59906 44100.00000 0 -15109715.178 -2594828.159 -20390736.846 10 0 59906 45000.00000 0 -16790518.112 -4325210.461 -18712543.283 10 0 59906 45900.00000 0 -18425943.486 -5772154.265 -16671012.974 10 0 59906 46800.00000 0 -19953150.552 -6923833.097 -14305743.601 10 0 59906 47700.00000 0 -21310205.353 -7781084.967 -11662629.593 10 0 59906 48600.00000 0 -22438666.581 -8357113.357 -8792974.960 10 0 59906 49500.00000 0 -23286046.281 -8676669.570 -5752499.436 10 0 59906 50400.00000 0 -23808041.740 -8774751.515 -2600257.057 10 0 59906 51300.00000 0 -23970444.351 -8694874.576 602511.878 10 0 59906 52200.00000 0 -23750644.483 -8486988.258 3793572.984 10 0 59906 53100.00000 0 -23138668.342 -8205127.397 6910910.402 10 0 59906 54000.00000 0 -22137702.452 -7904898.063 9893935.821 10 0 59906 54900.00000 0 -20764082.951 -7640905.284 12684669.846 10 0 59906 55800.00000 0 -19046749.563 -7464232.205 15228872.114 10 0 59906 56700.00000 0 -17026186.580 -7420078.036 17477097.879 10 0 59906 57600.00000 0 -14752894.831 -7545655.337 19385660.273 10 0 59906 58500.00000 0 -12285458.243 -7868436.092 20917479.459 10 0 59906 59400.00000 0 -9688285.502 -8404821.159 22042802.367 10 0 59906 60300.00000 0 -7029120.680 -9159289.774 22739779.288 10 0 59906 61200.00000 0 -4376426.311 -10124065.429 22994886.475 10 0 59906 62100.00000 0 -1796747.362 -11279312.748 22803186.906 10 0 59906 63000.00000 0 647834.813 -12593857.670 22168424.463 10 0 59906 63900.00000 0 2902053.284 -14026401.230 21102949.860 10 0 59906 64800.00000 0 4919514.217 -15527176.564 19627479.846 10 0 59906 65700.00000 0 6664378.740 -17039980.151 17770694.261 10 0 59906 66600.00000 0 8112598.974 -18504492.433 15568678.616 10 0 59906 67500.00000 0 9252657.924 -19858790.807 13064222.804 10 0 59906 68400.00000 0 10085783.637 -21041949.654 10305989.342 10 0 59906 69300.00000 0 10625629.953 -21996618.259 7347567.161 10 0 59906 70200.00000 0 10897438.641 -22671468.214 4246429.351 10 0 59906 71100.00000 0 10936719.467 -23023407.251 1062815.094 10 0 59906 72000.00000 0 10787504.977 -23019466.109 -2141442.131 10 0 59906 72900.00000 0 10500254.727 -22638278.798 -5304117.058 10 0 59906 73800.00000 0 10129498.395 -21871093.634 -8363802.174 10 0 59906 74700.00000 0 9731318.109 -20722272.258 -11261100.366 10 0 59906 75600.00000 0 9360776.988 -19209255.300 -13939777.361 10 0 59906 76500.00000 0 9069402.971 -17361995.772 -16347851.523 10 0 59906 77400.00000 0 8902834.466 -15221883.580 -18438599.880 10 0 59906 78300.00000 0 8898727.335 -12840205.668 -20171461.229 10 0 59906 79200.00000 0 9085011.593 -10276205.579 -21512819.240 10 0 59906 80100.00000 0 9478571.338 -7594822.759 -22436650.907 10 0 59906 81000.00000 0 10084403.663 -4864204.956 -22925028.354 10 0 59906 81900.00000 0 10895292.228 -2153096.303 -22968464.789 10 0 59906 82800.00000 0 11892009.652 471791.263 -22566098.228 10 0 59906 83700.00000 0 13044040.900 2948315.132 -21725709.593 10 0 59906 84600.00000 0 14310798.067 5221243.376 -20463574.721 10 0 59906 85500.00000 0 15643276.472 7244304.002 -18804152.842 10 0 59907 0.00000 0 16986083.320 8981857.773 -16779617.219 10 0 59907 900.00000 0 18279755.318 10410126.767 -14429235.255 10 0 59907 1800.00000 0 19463266.715 11517925.981 -11798612.223 10 0 59907 2700.00000 0 20476625.198 12306871.375 -8938809.047 10 0 59907 3600.00000 0 21263444.803 12791054.054 -5905353.400 10 0 59907 4500.00000 0 21773388.113 12996195.961 -2757162.077 10 0 59907 5400.00000 0 21964374.377 12958323.249 444604.282 10 0 59907 6300.00000 0 21804459.896 12722013.956 3637731.733 10 0 59907 7200.00000 0 21273310.619 12338294.698 6760165.178 10 0 59907 8100.00000 0 20363204.076 11862275.985 9751218.094 10 0 59907 9000.00000 0 19079517.479 11350626.885 12552755.788 10 0 59907 9900.00000 0 17440680.620 10858996.489 15110328.538 10 0 59907 10800.00000 0 15477594.718 10439491.859 17374232.255 10 0 59907 11700.00000 0 13232540.808 10138319.604 19300475.818 10 0 59907 12600.00000 0 10757622.840 9993691.154 20851636.150 10 0 59907 13500.00000 0 8112809.958 10034080.516 21997584.627 10 0 59907 14400.00000 0 5363659.136 10276908.265 22716070.956 10 0 59907 15300.00000 0 2578812.641 10727707.470 22993153.523 10 0 59907 16200.00000 0 -172626.095 11379806.862 22823468.246 10 0 59907 17100.00000 0 -2823729.687 12214544.857 22210331.010 10 0 59907 18000.00000 0 -5312288.076 13202005.626 21165671.894 10 0 59907 18900.00000 0 -7583149.073 14302246.587 19709802.559 10 0 59907 19800.00000 0 -9590261.739 15466966.015 17871021.212 10 0 59907 20700.00000 0 -11298338.467 16641540.925 15685062.693 10 0 59907 21600.00000 0 -12684067.644 17767349.762 13194404.089 10 0 59907 22500.00000 0 -13736827.448 18784282.354 10447439.171 10 0 59907 23400.00000 0 -14458872.108 19633331.485 7497537.517 10 0 59907 24300.00000 0 -14864984.144 20259156.903 4402006.576 10 0 59907 25200.00000 0 -14981608.446 20612513.539 1220976.871 10 0 59907 26100.00000 0 -14845505.808 20652441.325 -1983767.709 10 0 59907 27000.00000 0 -14501983.798 20348123.947 -5149991.517 10 0 59907 27900.00000 0 -14002780.559 19680337.776 -8216216.981 10 0 59907 28800.00000 0 -13403691.703 18642429.531 -11122918.750 10 0 59907 29700.00000 0 -12762041.152 17240781.022 -13813678.749 10 0 59907 30600.00000 0 -12134103.126 15494740.873 -16236279.675 10 0 59907 31500.00000 0 -11572584.382 13436025.585 -18343715.714 10 0 59907 32400.00000 0 -11124272.922 11107614.302 -20095101.221 10 0 59907 33300.00000 0 -10827952.282 8562182.769 -21456460.168 10 0 59907 34200.00000 0 -10712669.049 5860141.065 -22401381.576 10 0 59907 35100.00000 0 -10796426.424 3067355.939 -22911528.805 10 0 59907 36000.00000 0 -11085358.664 252651.477 -22976993.356 10 0 59907 36900.00000 0 -11573421.161 -2514808.985 -22596486.650 10 0 59907 37800.00000 0 -12242609.382 -5168152.101 -21777366.285 10 0 59907 38700.00000 0 -13063697.856 -7645326.836 -20535496.128 10 0 59907 39600.00000 0 -13997468.677 -9891435.668 -18894942.685 10 0 59907 40500.00000 0 -14996378.512 -11860768.779 -16887513.106 10 0 59907 41400.00000 0 -16006594.673 -13518457.523 -14552143.130 10 0 59907 42300.00000 0 -16970315.129 -14841679.009 -11934146.184 10 0 59907 43200.00000 0 -17828275.208 -15820362.274 -9084337.582 10 0 59907 44100.00000 0 -18522335.561 -16457367.230 -6058050.292 10 0 59907 45000.00000 0 -18998042.191 -16768129.492 -2914061.178 10 0 59907 45900.00000 0 -19207050.236 -16779786.714 286551.506 10 0 59907 46800.00000 0 -19109308.615 -16529823.865 3481596.988 10 0 59907 47700.00000 0 -18674912.563 -16064295.235 6608983.654 10 0 59907 48600.00000 0 -17885544.961 -15435698.890 9607929.453 10 0 59907 49500.00000 0 -16735444.640 -14700594.033 12420147.006 10 0 59907 50400.00000 0 -15231859.867 -13917062.555 14990979.712 10 0 59907 51300.00000 0 -13394966.875 -13142122.615 17270466.417 10 0 59907 52200.00000 0 -11257255.906 -12429203.907 19214313.742 10 0 59907 53100.00000 0 -8862409.625 -11825791.560 20784757.016 10 0 59907 54000.00000 0 -6263720.027 -11371338.229 21951293.300 10 0 59907 54900.00000 0 -3522109.160 -11095532.488 22691272.516 10 0 59907 55800.00000 0 -703835.582 -11016996.406 22990335.536 10 0 59907 56700.00000 0 2122018.674 -11142467.064 22842691.124 10 0 59907 57600.00000 0 4886176.807 -11466496.306 22251226.655 10 0 59907 58500.00000 0 7521802.980 -11971681.262 21227450.670 10 0 59907 59400.00000 0 9967036.328 -12629415.838 19791268.476 10 0 59907 60300.00000 0 12167318.716 -13401131.562 17970595.046 10 0 59907 61200.00000 0 14077420.186 -14239975.511 15800812.596 10 0 59907 62100.00000 0 15663078.695 -15092854.725 13324083.138 10 0 59907 63000.00000 0 16902186.768 -15902760.937 10588529.098 10 0 59907 63900.00000 0 17785476.449 -16611277.566 7647297.802 10 0 59907 64800.00000 0 18316675.064 -17161163.097 4557527.925 10 0 59907 65700.00000 0 18512126.355 -17498901.611 1379238.016 10 0 59907 66600.00000 0 18399894.041 -17577112.486 -1825841.002 10 0 59907 67500.00000 0 18018386.578 -17356717.157 -4995466.437 10 0 59907 68400.00000 0 17414562.078 -16808771.008 -8068093.852 10 0 59907 69300.00000 0 16641789.869 -15915882.609 -10984072.597 10 0 59907 70200.00000 0 15757459.595 -14673159.908 -13686803.439 10 0 59907 71100.00000 0 14820439.141 -13088642.856 -16123835.702 10 0 59907 72000.00000 0 13888488.863 -11183203.634 -18247882.643 10 0 59907 72900.00000 0 13015741.095 -8989917.841 -20017735.681 10 0 59907 73800.00000 0 12250350.961 -6552932.050 -21399060.169 10 0 59907 74700.00000 0 11632417.047 -3925874.163 -22365057.780 10 0 59907 75600.00000 0 11192259.003 -1169871.766 -22896983.272 10 0 59907 76500.00000 0 10949124.037 1648740.148 -22984506.142 10 0 59907 77400.00000 0 10910376.334 4460927.848 -22625910.492 10 0 59907 78300.00000 0 11071203.209 7197580.902 -21828129.456 10 0 59907 79200.00000 0 11414850.247 9792139.847 -20606613.434 10 0 59907 80100.00000 0 11913375.680 12183121.337 -18985034.379 10 0 59907 81000.00000 0 12528892.471 14316436.843 -16994831.411 10 0 59907 81900.00000 0 13215246.225 16147409.309 -14674605.857 10 0 59907 82800.00000 0 13920058.578 17642404.422 -12069376.846 10 0 59907 83700.00000 0 14587050.241 18780009.098 -9229711.255 10 0 59907 84600.00000 0 15158545.867 19551708.484 -6210744.346 10 0 59907 85500.00000 0 15578054.911 19962033.580 -3071109.934 10 0 59908 0.00000 0 15792819.218 20028173.853 128198.964 10 0 59908 900.00000 0 15756219.194 19779071.624 3325018.426 10 0 59908 1800.00000 0 15429935.937 19254036.867 6457222.963 10 0 59908 2700.00000 0 14785777.415 18500941.539 9463937.718 10 0 59908 3600.00000 0 13807090.225 17574070.011 12286725.043 10 0 59908 4500.00000 0 12489696.396 16531716.964 14870723.542 10 0 59908 5400.00000 0 10842314.628 15433634.621 17165716.750 10 0 59908 6300.00000 0 8886447.079 14338437.376 19127110.440 10 0 59908 7200.00000 0 6655735.426 13301073.552 20716799.428 10 0 59908 8100.00000 0 4194812.145 12370470.911 21903907.213 10 0 59908 9000.00000 0 1557694.056 11587454.976 22665384.354 10 0 59908 9900.00000 0 -1194215.596 10983027.592 22986454.271 10 0 59908 10800.00000 0 -3994434.169 10577077.734 22860898.257 10 0 59908 11700.00000 0 -6773920.501 10377578.361 22291174.448 10 0 59908 12600.00000 0 -9463705.503 10380302.610 21288368.686 10 0 59908 13500.00000 0 -11997523.883 10569070.809 19871978.312 10 0 59908 14400.00000 0 -14314338.317 10916517.492 18069533.020 10 0 59908 15300.00000 0 -16360651.749 11385345.779 15916059.986 10 0 59908 16200.00000 0 -18092512.322 11930015.983 13453403.408 10 0 59908 17100.00000 0 -19477128.171 12498796.984 10729411.425 10 0 59908 18000.00000 0 -20494025.387 13036093.605 7797006.050 10 0 59908 18900.00000 0 -21135701.666 13484951.421 4713154.098 10 0 59908 19800.00000 0 -21407749.136 13789632.901 1537759.117 10 0 59908 20700.00000 0 -21328442.140 13898155.648 -1667503.866 10 0 59908 21600.00000 0 -20927808.238 13764684.992 -4840387.898 10 0 59908 22500.00000 0 -20246222.409 13351679.361 -7919284.298 10 0 59908 23400.00000 0 -19332584.444 12631697.231 -10844419.563 10 0 59908 24300.00000 0 -18242156.972 11588788.809 -13559015.518 10 0 59908 25200.00000 0 -17034155.698 10219413.060 -16010390.062 10 0 59908 26100.00000 0 -15769193.602 8532840.776 -18150977.171 10 0 59908 27000.00000 0 -14506686.731 6551025.869 -19939246.614 10 0 59908 27900.00000 0 -13302330.511 4307949.311 -21340506.029 10 0 59908 28800.00000 0 -12205752.281 1848462.176 -22327570.259 10 0 59908 29700.00000 0 -11258438.104 -773325.096 -22881285.582 10 0 59908 30600.00000 0 -10492020.234 -3496041.288 -22990899.213 10 0 59908 31500.00000 0 -9926996.495 -6253358.843 -22654267.270 10 0 59908 32400.00000 0 -9571934.672 -8976509.612 -21877897.382 10 0 59908 33300.00000 0 -9423194.831 -11596908.585 -20676825.068 10 0 59908 34200.00000 0 -9465180.889 -14048777.587 -19074325.994 10 0 59908 35100.00000 0 -9671110.675 -16271660.903 -17101469.198 10 0 59908 36000.00000 0 -10004272.037 -18212728.991 -14796519.315 10 0 59908 36900.00000 0 -10419712.137 -19828774.912 -12204198.716 10 0 59908 37800.00000 0 -10866288.795 -21087820.753 -9374823.271 10 0 59908 38700.00000 0 -11288997.295 -21970267.302 -6363327.944 10 0 59908 39600.00000 0 -11631474.288 -22469539.143 -3228200.907 10 0 59908 40500.00000 0 -11838572.607 -22592198.441 -30346.806 10 0 59908 41400.00000 0 -11858897.649 -22357522.948 3168098.620 10 0 59908 42300.00000 0 -11647197.324 -21796566.311 6304979.038 10 0 59908 43200.00000 0 -11166503.606 -20950740.689 9319329.152 10 0 59908 44100.00000 0 -10389934.164 -19869981.793 12152563.351 10 0 59908 45000.00000 0 -9302076.855 -18610574.189 14749617.628 10 0 59908 45900.00000 0 -7899897.516 -17232728.905 17060022.223 10 0 59908 46800.00000 0 -6193131.626 -15798015.764 19038883.853 10 0 59908 47700.00000 0 -4204142.220 -14366758.765 20647758.326 10 0 59908 48600.00000 0 -1967248.881 -12995504.188 21855396.763 10 0 59908 49500.00000 0 472445.219 -11734667.698 22638351.175 10 0 59908 50400.00000 0 3060680.143 -10626459.031 22981427.985 10 0 59908 51300.00000 0 5736053.006 -9703170.914 22877981.095 10 0 59908 52200.00000 0 8432335.765 -8985903.371 22330039.130 10 0 59908 53100.00000 0 11081001.261 -8483776.306 21348264.619 10 0 59908 54000.00000 0 13613853.183 -8193662.607 19951746.004 10 0 59908 54900.00000 0 15965651.306 -8100452.220 18167626.450 10 0 59908 55800.00000 0 18076623.268 -8177835.385 16030576.518 10 0 59908 56700.00000 0 19894758.974 -8389571.386 13582120.690 10 0 59908 57600.00000 0 21377792.531 -8691188.747 10869830.564 10 0 59908 58500.00000 0 22494789.548 -9032044.664 7946400.231 10 0 59908 59400.00000 0 23227274.044 -9357656.179 4868621.713 10 0 59908 60300.00000 0 23569848.480 -9612204.144 1696280.351 10 0 59908 61200.00000 0 23530281.541 -9741103.603 -1509008.122 10 0 59908 62100.00000 0 23129060.736 -9693531.385 -4684995.967 10 0 59908 63000.00000 0 22398429.345 -9424803.459 -7770013.682 10 0 59908 63900.00000 0 21380948.863 -8898501.001 -10704168.159 10 0 59908 64800.00000 0 20127648.064 -8088254.714 -13430505.251 10 0 59908 65700.00000 0 18695836.949 -6979111.418 -15896114.068 10 0 59908 66600.00000 0 17146677.842 -5568424.614 -18053151.532 10 0 59908 67500.00000 0 15542615.756 -3866230.686 -19859767.592 10 0 59908 68400.00000 0 13944775.774 -1895093.982 -21280913.568 10 0 59908 69300.00000 0 12410436.281 310573.739 -22289018.422 10 0 59908 70200.00000 0 10990683.413 2705692.225 -22864520.452 10 0 59908 71100.00000 0 9728344.232 5236142.092 -22996244.635 10 0 59908 72000.00000 0 8656284.422 7840777.903 -22681618.684 10 0 59908 72900.00000 0 7796140.927 10453742.537 -21926723.853 10 0 59908 73800.00000 0 7157541.823 13006987.795 -20746179.476 10 0 59908 74700.00000 0 6737845.439 15432897.506 -19162863.211 10 0 59908 75600.00000 0 6522409.094 17666905.020 -17207471.920 10 0 59908 76500.00000 0 6485375.698 19649996.953 -14917931.092 10 0 59908 77400.00000 0 6590944.862 21330999.397 -12338663.580 10 0 59908 78300.00000 0 6795074.691 22668551.636 -9519731.205 10 0 59908 79200.00000 0 7047542.279 23632685.161 -6515865.363 10 0 59908 80100.00000 0 7294275.623 24205941.980 -3385405.175 10 0 59908 81000.00000 0 7479858.003 24383985.458 -189163.730 10 0 59908 81900.00000 0 7550098.370 24175678.102 3010755.422 10 0 59908 82800.00000 0 7454558.322 23602623.123 6152168.097 10 0 59908 83700.00000 0 7148927.872 22698189.239 9174021.598 10 0 59908 84600.00000 0 6597148.538 21506059.982 12017585.056 10 0 59908 85500.00000 0 5773192.983 20078368.883 14627594.195 99